Terminal Aerodrome Forecast
Issued by NWS Wichita, KS

Home | Current Version | Previous Version | Text Only | Print | Product List | Glossary On
Versions: 1 2 3 4 5 6 7 8 9 10 11 12 13 14 15
000
FTUS43 KICT 282320
TAFICT
TAF
KICT 282320Z 2900/2924 18008KT P6SM BKN300
     FM291100 18007KT 6SM BR SCT004
     FM291600 21010KT P6SM SCT300=

USA.gov is the U.S. government's official web portal to all federal, state and local government web resources and services.